When you browse on this site, cookies collect data to enhance your experience and personalize the content and advertising you see.
Visit our Privacy Policy to learn more. By continuing to use the site, you agree to this use of cookies and data.
  • In Latvia
  • List of Countries
  • For 7 days
  • Water Temperature
  • Satellite Maps
  • Weather Map
  • Weather Widgets
  • user-avatar
    Login

    Hourly Weather Ganja

    Today, 16 June, Sunday

    Time Temperature Precipitation Wind Pressure Humidity
    00:00 +25°C° 0 mm 3 mps 724 mmHg 50%
    01:00 +24°C° 0 mm 2 mps 724 mmHg 51%
    02:00 +24°C° 0 mm 2 mps 724 mmHg 52%
    03:00 +23°C° 0 mm 1 mps 724 mmHg 54%
    04:00 +24°C° 0 mm 1 mps 724 mmHg 55%
    05:00 +24°C° 0 mm 1 mps 723 mmHg 55%
    06:00 +24°C° 0 mm 1 mps 723 mmHg 56%
    07:00 +26°C° 0 mm 1 mps 723 mmHg 55%
    08:00 +27°C° 0 mm 1 mps 723 mmHg 53%
    09:00 +28°C° 0 mm 1 mps 723 mmHg 51%
    10:00 +29°C° 0 mm 1 mps 723 mmHg 49%
    11:00 +30°C° 0 mm 1 mps 722 mmHg 46%
    12:00 +31°C° 0 mm 1 mps 722 mmHg 44%
    13:00 +32°C° 0.1 mm 1 mps 721 mmHg 43%
    14:00 +32°C° 0.1 mm 1 mps 721 mmHg 42%
    15:00 +33°C° 0.1 mm 1 mps 721 mmHg 40%
    16:00 +33°C° 0.1 mm 1 mps 721 mmHg 42%
    17:00 +32°C° 0.1 mm 1 mps 721 mmHg 44%
    18:00 +32°C° 0.1 mm 1 mps 720 mmHg 45%
    19:00 +31°C° 0 mm 1 mps 721 mmHg 47%
    20:00 +30°C° 0 mm 2 mps 721 mmHg 49%
    21:00 +28°C° 0 mm 2 mps 721 mmHg 50%
    22:00 +28°C° 0 mm 2 mps 721 mmHg 51%
    23:00 +27°C° 0 mm 2 mps 721 mmHg 51%

    Tomorrow, 17 June, Monday

    Time Temperature Precipitation Wind Pressure Humidity
    00:00 +27°C° 0 mm 2 mps 721 mmHg 51%
    01:00 +26°C° 0 mm 2 mps 721 mmHg 53%
    02:00 +25°C° 0 mm 2 mps 721 mmHg 54%
    03:00 +25°C° 0 mm 2 mps 721 mmHg 55%
    04:00 +25°C° 0 mm 2 mps 721 mmHg 56%
    05:00 +26°C° 0 mm 2 mps 721 mmHg 57%
    06:00 +26°C° 0 mm 2 mps 721 mmHg 58%
    07:00 +27°C° 0 mm 2 mps 721 mmHg 56%
    08:00 +28°C° 0 mm 2 mps 721 mmHg 54%
    09:00 +29°C° 0 mm 3 mps 721 mmHg 52%
    10:00 +30°C° 0.1 mm 2 mps 721 mmHg 50%
    11:00 +31°C° 0.1 mm 2 mps 721 mmHg 47%
    12:00 +32°C° 0.1 mm 2 mps 720 mmHg 45%
    13:00 +34°C° 0.2 mm 2 mps 720 mmHg 43%
    14:00 +35°C° 0.2 mm 2 mps 720 mmHg 41%
    15:00 +35°C° 0.2 mm 2 mps 720 mmHg 39%
    16:00 +35°C° 0.1 mm 2 mps 720 mmHg 41%
    17:00 +35°C° 0.1 mm 2 mps 720 mmHg 43%
    18:00 +34°C° 0.1 mm 2 mps 720 mmHg 46%
    19:00 +31°C° 0.3 mm 2 mps 721 mmHg 48%
    20:00 +30°C° 0.3 mm 3 mps 722 mmHg 51%
    21:00 +28°C° 0.3 mm 4 mps 722 mmHg 53%
    22:00 +27°C° 0.3 mm 3 mps 722 mmHg 54%
    23:00 +26°C° 0.3 mm 2 mps 722 mmHg 55%

    Day after tomorrow, 18 June, Tuesday

    Time Temperature Precipitation Wind Pressure Humidity
    00:00 +25°C° 0.3 mm 1 mps 722 mmHg 57%
    01:00 +25°C° 0.1 mm 1 mps 722 mmHg 58%
    02:00 +25°C° 0.1 mm 1 mps 722 mmHg 59%
    03:00 +24°C° 0.1 mm 1 mps 722 mmHg 61%
    04:00 +24°C° 0 mm 1 mps 722 mmHg 61%
    05:00 +25°C° 0 mm 2 mps 722 mmHg 62%
    06:00 +25°C° 0 mm 2 mps 722 mmHg 62%
    07:00 +26°C° 0 mm 2 mps 722 mmHg 61%
    08:00 +27°C° 0 mm 2 mps 722 mmHg 59%
    09:00 +28°C° 0 mm 2 mps 722 mmHg 57%
    10:00 +29°C° 0.1 mm 2 mps 722 mmHg 54%
    11:00 +30°C° 0.1 mm 2 mps 722 mmHg 51%
    12:00 +31°C° 0.1 mm 2 mps 721 mmHg 49%
    13:00 +32°C° 0.4 mm 2 mps 721 mmHg 46%
    14:00 +33°C° 0.4 mm 3 mps 721 mmHg 44%
    15:00 +34°C° 0.4 mm 3 mps 721 mmHg 42%
    16:00 +34°C° 0.4 mm 3 mps 721 mmHg 44%
    17:00 +32°C° 0.4 mm 2 mps 721 mmHg 46%
    18:00 +32°C° 0.4 mm 2 mps 721 mmHg 48%
    19:00 +30°C° 0.1 mm 3 mps 721 mmHg 49%
    20:00 +29°C° 0.1 mm 3 mps 722 mmHg 50%
    21:00 +28°C° 0.1 mm 4 mps 722 mmHg 51%
    22:00 +27°C° 0.6 mm 3 mps 722 mmHg 55%
    23:00 +26°C° 0.6 mm 3 mps 722 mmHg 58%

    19 June, Wednesday

    Time Temperature Precipitation Wind Pressure Humidity
    00:00 +25°C° 0.6 mm 3 mps 722 mmHg 62%
    01:00 +24°C° 0.2 mm 2 mps 722 mmHg 65%
    02:00 +24°C° 0.2 mm 2 mps 722 mmHg 69%
    03:00 +23°C° 0.2 mm 2 mps 722 mmHg 72%
    04:00 +23°C° 0 mm 2 mps 722 mmHg 72%
    05:00 +24°C° 0 mm 2 mps 722 mmHg 72%
    06:00 +24°C° 0 mm 2 mps 722 mmHg 72%
    07:00 +25°C° 0 mm 2 mps 722 mmHg 68%
    08:00 +26°C° 0 mm 3 mps 722 mmHg 65%
    09:00 +27°C° 0 mm 3 mps 722 mmHg 61%
    10:00 +28°C° 0.1 mm 2 mps 722 mmHg 57%
    11:00 +29°C° 0.1 mm 2 mps 722 mmHg 52%
    12:00 +31°C° 0.1 mm 2 mps 722 mmHg 48%
    13:00 +31°C° 0.1 mm 2 mps 721 mmHg 45%
    14:00 +33°C° 0.1 mm 3 mps 721 mmHg 41%
    15:00 +34°C° 0.1 mm 3 mps 721 mmHg 38%
    16:00 +33°C° 0 mm 3 mps 721 mmHg 39%
    17:00 +33°C° 0 mm 3 mps 721 mmHg 41%
    18:00 +33°C° 0 mm 3 mps 721 mmHg 42%
    19:00 +30°C° 0 mm 4 mps 721 mmHg 43%
    20:00 +29°C° 0 mm 4 mps 722 mmHg 44%
    21:00 +28°C° 0 mm 4 mps 722 mmHg 45%
    22:00 +27°C° 0 mm 4 mps 722 mmHg 45%
    23:00 +27°C° 0 mm 3 mps 722 mmHg 46%

    20 June, Thursday

    Time Temperature Precipitation Wind Pressure Humidity
    00:00 +26°C° 0 mm 3 mps 722 mmHg 46%
    01:00 +25°C° 0 mm 3 mps 722 mmHg 48%
    02:00 +25°C° 0 mm 2 mps 722 mmHg 49%
    03:00 +24°C° 0 mm 2 mps 722 mmHg 51%
    04:00 +25°C° 0 mm 2 mps 722 mmHg 52%
    05:00 +25°C° 0 mm 1 mps 722 mmHg 53%
    06:00 +25°C° 0 mm 1 mps 722 mmHg 54%
    07:00 +27°C° 0 mm 2 mps 722 mmHg 51%
    08:00 +28°C° 0 mm 2 mps 722 mmHg 48%
    09:00 +29°C° 0 mm 2 mps 722 mmHg 46%
    10:00 +31°C° 0 mm 3 mps 722 mmHg 41%
    11:00 +33°C° 0 mm 4 mps 722 mmHg 37%
    12:00 +34°C° 0 mm 5 mps 721 mmHg 32%
    13:00 +35°C° 0 mm 5 mps 721 mmHg 31%
    14:00 +35°C° 0 mm 6 mps 721 mmHg 30%
    15:00 +35°C° 0 mm 6 mps 720 mmHg 29%
    16:00 +35°C° 0 mm 6 mps 720 mmHg 32%
    17:00 +34°C° 0 mm 6 mps 720 mmHg 35%
    18:00 +33°C° 0 mm 5 mps 720 mmHg 38%
    19:00 +32°C° 0.1 mm 5 mps 721 mmHg 40%
    20:00 +29°C° 0.1 mm 6 mps 721 mmHg 42%
    21:00 +28°C° 0.1 mm 6 mps 722 mmHg 44%
    22:00 +27°C° 0 mm 6 mps 722 mmHg 44%
    23:00 +27°C° 0 mm 5 mps 722 mmHg 45%

    21 June, Friday

    Time Temperature Precipitation Wind Pressure Humidity
    00:00 +27°C° 0 mm 5 mps 722 mmHg 45%
    01:00 +26°C° 0 mm 4 mps 722 mmHg 46%
    02:00 +26°C° 0 mm 4 mps 722 mmHg 46%
    03:00 +26°C° 0 mm 4 mps 722 mmHg 47%
    04:00 +26°C° 0 mm 3 mps 722 mmHg 49%
    05:00 +26°C° 0 mm 3 mps 722 mmHg 51%
    06:00 +26°C° 0 mm 3 mps 722 mmHg 53%
    07:00 +27°C° 0 mm 4 mps 723 mmHg 49%
    08:00 +28°C° 0 mm 5 mps 723 mmHg 45%
    09:00 +29°C° 0 mm 6 mps 723 mmHg 42%
    10:00 +29°C° 0 mm 7 mps 723 mmHg 43%
    11:00 +29°C° 0 mm 8 mps 723 mmHg 45%
    12:00 +29°C° 0 mm 8 mps 723 mmHg 46%
    13:00 +29°C° 0.1 mm 8 mps 723 mmHg 46%
    14:00 +29°C° 0.1 mm 7 mps 723 mmHg 46%
    15:00 +29°C° 0.1 mm 6 mps 723 mmHg 46%
    16:00 +29°C° 0.1 mm 6 mps 723 mmHg 46%
    17:00 +29°C° 0.1 mm 5 mps 723 mmHg 46%
    18:00 +28°C° 0.1 mm 4 mps 723 mmHg 47%
    19:00 +27°C° 0 mm 3 mps 723 mmHg 50%
    20:00 +26°C° 0 mm 3 mps 724 mmHg 53%
    21:00 +25°C° 0 mm 2 mps 724 mmHg 56%
    22:00 +25°C° 0 mm 2 mps 724 mmHg 57%
    23:00 +24°C° 0 mm 1 mps 724 mmHg 59%
    Show more